Погода в Посьете

Россия / Приморский край     42°39′09″N   130°48′05″E
темп.,
°C
ветер,
м/с
пор.,
м/с
влажн.,
%
обл.,
%
осадки,
мм/ч
давл.,
гПа
погр.,
м
13 мая, чт
чт1301:00+7всв239642 0.0 101544
04:00+7св229658 0.0 101536
07:00+8всв1194100 0.0 101468
10:00+11ююз1186100 0.0 1015318
13:00+13ююв2274100 0.0 1013497
16:00+13юв3479100 0.0 1012374
19:00+11в2284100 0.1 1012158
22:00+9с119534 0.1 101317
14 мая, пт
пт1401:00+10ссв118679 0.0 101310
04:00+9ссз00905 0.0 101410
07:00+10сз1188100 0.0 101514
10:00+16ююз2166100 0.0 1015297
13:00+15ююв3468100 0.0 1014438
16:00+14юв357096 0.0 1012338
19:00+12вюв3780100 0.0 1012270
22:00+10в349068 0.0 101385
15 мая, сб
сб1501:00+10в239323 0.0 101275
04:00+9всв1197100 0.0 101014
07:00+9всв1194100 0.0 101046
10:00+15ююв1174100 0.0 1009242
13:00+17ююв236775 0.0 1007456
16:00+14ююв2377100 0.1 1007169
19:00+13ссв2396100 1.8 100889
22:00+12юз1399100 6.4 1010185
16 мая, вс
вс1601:00+11ссз2495100 3.6 1011197
04:00+11зсз2394100 3.9 101086
07:00+10сз3493100 0.1 1011110
10:00+11сз3491100 0.1 1011117
13:00+10сз2492100 0.4 1010179
16:00+10з2392100 1.1 1009193
19:00+11зсз2489100 0.0 1008238
22:00+10сз2294100 0.0 100834
17 мая, пн
пн1701:00+9сз2295100 0.0 100740
04:00+8сз339552 0.0 100656
07:00+8сз34914 0.0 100774
10:00+16зсз346085 0.0 1007250
13:00+20з3440100 0.0 1007939
16:00+19ююз2448100 0.0 1006961
19:00+15юв2367100 0.0 100669
22:00+11всв1174100 0.0 100812